Guymon, OK

1:43 AM CDT on October 23, 2017 (GMT -0500)
Guymon Municipal

Weather History for KGUY - September, 2012

Change the Weather History Date:

Thursday, September 20, 2012

  Actual Average Record
Temperature  
Mean Temperature 69 °F 69 °F  
Max Temperature 87 °F 84 °F 99 °F (2005)
Min Temperature 50 °F 54 °F 45 °F (2002)
Degree Days  
Heating Degree Days 0 2  
Month to date heating degree days 22 12  
Since 1 July heating degree days 22 13  
Cooling Degree Days 4 5  
Month to date cooling degree days 150 165  
Year to date cooling degree days 1864 1414  
Growing Degree Days 20 (Base 50)    
Moisture  
Dew Point 44 °F    
Average Humidity 42    
Maximum Humidity 59    
Minimum Humidity 25    
Precipitation  
Precipitation 0.00 in 0.06 in 1.37 in (2003)
Month to date precipitation 0.51 1.22  
Year to date precipitation 9.53 15.99  
Snow  
Snow 0.00 in - - ()
Month to date snowfall 0.0  
Since 1 July snowfall 0.0  
Since 1 September snowfall 0.0  
Snow Depth 0.00 in    
Sea Level Pressure  
Sea Level Pressure 29.92 in    
Wind  
Wind Speed 7 mph (ENE)    
Max Wind Speed 15 mph    
Max Gust Speed 20 mph    
Visibility 10 miles    
Events      
T = Trace of Precipitation, MM = Missing Value Source: NWS Daily Summary

Daily Weather History Graph

Daily Weather History Graph

Search for Another Location

Airport or City:

Trip Planner

Search our weather history database for the weather conditions in past years. The results will help you decide how hot, cold, wet, or windy it might be!

Date:

Astronomy

Sep. 20, 2012 Rise Set
Actual Time 7:32 AM CDT 7:45 PM CDT
Civil Twilight 7:06 AM CDT 8:10 PM CDT
Nautical Twilight 6:36 AM CDT 8:41 PM CDT
Astronomical Twilight 6:05 AM CDT 9:11 PM CDT
Moon 12:43 PM CDT (9/20) 10:58 PM CDT (9/20)
Length of Visible Light 13h 04m
Length of Day
12h 12m
Waxing Crescent, 27% of the Moon is Illuminated
Sep 20
Waxing Crescent
Sep 22
First Quarter
Sep 29
Full
Oct 8
Last Quarter
Oct 15
New

Hourly Weather History & Observations

Time (CDT) Temp. Dew Point Humidity Pressure Visibility Wind Dir Wind Speed Gust Speed Precip Events Conditions
12:53 AM 70.0 °F 39.0 °F 32% 29.93 in 10.0 mi ENE 11.5 mph - N/A   Clear
1:53 AM 66.9 °F 37.9 °F 34% 29.91 in 10.0 mi ENE 12.7 mph - N/A   Clear
2:53 AM 64.0 °F 39.0 °F 40% 29.93 in 10.0 mi NE 8.1 mph - N/A   Clear
3:53 AM 60.1 °F 39.0 °F 46% 29.93 in 10.0 mi NE 4.6 mph - N/A   Clear
5:53 AM 55.9 °F 39.0 °F 53% 29.94 in 10.0 mi NE 5.8 mph - N/A   Clear
6:53 AM 54.0 °F 39.9 °F 59% 29.97 in 10.0 mi WNW 4.6 mph - N/A   Clear
7:53 AM 53.1 °F 39.9 °F 61% 29.98 in 10.0 mi North 5.8 mph - N/A   Clear
8:53 AM 55.9 °F 39.9 °F 55% 29.99 in 10.0 mi North 4.6 mph - N/A   Clear
9:53 AM 63.0 °F 39.9 °F 43% 29.99 in 10.0 mi NNE 6.9 mph - N/A   Clear
10:53 AM 69.1 °F 41.0 °F 36% 29.97 in 10.0 mi ENE 8.1 mph - N/A   Clear
11:53 AM 75.0 °F 43.0 °F 32% 29.96 in 10.0 mi Variable 5.8 mph - N/A   Clear
12:53 PM 77.0 °F 44.1 °F 31% 29.94 in - East 8.1 mph - N/A   Clear
1:53 PM 81.0 °F 46.0 °F 29% 29.92 in - East 6.9 mph - N/A   Clear
2:53 PM 82.9 °F 46.0 °F 27% 29.90 in 10.0 mi ESE 4.6 mph - N/A   Clear
3:53 PM 84.0 °F 46.9 °F 27% 29.87 in 10.0 mi East 6.9 mph - N/A   Clear
4:53 PM 86.0 °F 46.9 °F 26% 29.86 in 10.0 mi ESE 5.8 mph - N/A   Clear
5:53 PM 84.9 °F 46.9 °F 27% 29.85 in 10.0 mi SE 5.8 mph - N/A   Clear
6:53 PM 84.9 °F 48.0 °F 28% 29.85 in 10.0 mi East 4.6 mph - N/A   Clear
7:53 PM 79.0 °F 48.0 °F 34% 29.87 in 10.0 mi Calm Calm - N/A   Clear
8:53 PM 73.0 °F 48.0 °F 41% 29.89 in 10.0 mi North 9.2 mph - N/A   Clear
9:53 PM 71.1 °F 48.0 °F 44% 29.90 in 10.0 mi NNE 8.1 mph - N/A   Clear
10:53 PM 70.0 °F 48.0 °F 46% 29.91 in 10.0 mi NE 10.4 mph - N/A   Clear
11:53 PM 70.0 °F 50.0 °F 49% 29.89 in 10.0 mi ENE 10.4 mph - N/A   Clear